This demonstration page uses our WeatherBlox Daily Observations layout. Learn more.

Left ArrowRight Arrow

Hourly Observations for March 19, 2023

Temp ( °F °C ) Dew Point ( °F °C ) Humidity (%) Winds ( mph kmh ) Pressure ( in mb ) Visibility ( mi km ) Precip ( " mm )
12:15 am 00:15 Clear 37 3 27 -3 65 65 NNW 14 22 29.99 1015 10 16 0.00 0.00
12:35 am 00:35 Clear 37 3 25 -4 60 60 NNW 15 24 30.00 1016 10 16 0.00 0.00
12:55 am 00:55 Clear 36 2 25 -4 64 64 NW 10 17 30.01 1016 10 16 0.00 0.00
1:15 am 01:15 Clear 36 2 21 -6 55 55 NW 16 26 30.01 1016 10 16 0.00 0.00
1:35 am 01:35 Clear 36 2 19 -7 51 51 NW 13 20 30.02 1017 10 16 0.00 0.00
1:55 am 01:55 Clear 36 2 19 -7 51 51 NW 12 19 30.03 1017 10 16 0.00 0.00
2:15 am 02:15 Clear 36 2 18 -8 47 47 NW 15 24 30.04 1017 10 16 0.00 0.00
2:35 am 02:35 Clear 34 1 18 -8 51 51 NW 17 28 30.05 1018 10 16 0.00 0.00
2:55 am 02:55 Clear 34 1 18 -8 51 51 NW 25 41 30.05 1018 10 16 0.00 0.00
3:15 am 03:15 Clear 32 0 16 -9 51 51 NW 21 33 30.06 1018 10 16 0.00 0.00
3:35 am 03:35 Clear 32 0 16 -9 51 51 NW 26 43 30.06 1018 10 16 0.00 0.00
3:55 am 03:55 Clear 32 0 14 -10 47 47 NW 17 28 30.07 1018 10 16 0.00 0.00
4:15 am 04:15 Clear 32 0 14 -10 47 47 NW 16 26 30.08 1019 10 16 0.00 0.00
4:35 am 04:35 Clear 32 0 14 -10 47 47 NW 17 28 30.08 1019 10 16 0.00 0.00
4:55 am 04:55 Clear 30 -1 14 -10 50 50 NW 22 35 30.10 1019 10 16 0.00 0.00
5:15 am 05:15 Clear 30 -1 12 -11 46 46 WNW 15 24 30.12 1020 10 16 0.00 0.00
5:35 am 05:35 Clear 28 -2 12 -11 50 50 NW 18 30 30.13 1020 10 16 0.00 0.00
5:55 am 05:55 Clear 28 -2 12 -11 50 50 NNW 16 26 30.13 1020 10 16 0.00 0.00
6:15 am 06:15 Clear 28 -2 12 -11 50 50 NW 16 26 30.16 1021 10 16 0.00 0.00
6:35 am 06:35 Clear 27 -3 10 -12 50 50 WNW 17 28 30.16 1021 10 16 0.00 0.00
6:55 am 06:55 Clear 27 -3 5 -15 39 39 NW 15 24 30.17 1022 10 16 0.00 0.00
7:15 am 07:15 Clear 27 -3 9 -13 46 46 NW 13 20 30.18 1022 10 16 0.00 0.00
7:35 am 07:35 Sunny 27 -3 9 -13 46 46 NW 16 26 30.17 1022 10 16 0.00 0.00
7:55 am 07:55 Sunny 27 -3 7 -14 42 42 NW 8 13 30.19 1022 10 16 0.00 0.00
8:15 am 08:15 Sunny 27 -3 7 -14 42 42 WNW 10 17 30.19 1022 10 16 0.00 0.00
8:35 am 08:35 Sunny 28 -2 9 -13 43 43 WNW 14 22 30.20 1023 10 16 0.00 0.00
8:55 am 08:55 Sunny 28 -2 9 -13 43 43 WNW 14 22 30.21 1023 10 16 0.00 0.00
9:15 am 09:15 Sunny 28 -2 9 -13 43 43 WNW 9 15 30.21 1023 10 16 0.00 0.00
9:35 am 09:35 Sunny 30 -1 9 -13 40 40 NW 15 24 30.21 1023 10 16 0.00 0.00
9:55 am 09:55 Sunny 30 -1 10 -12 43 43 NW 15 24 30.21 1023 10 16 0.00 0.00
10:15 am 10:15 Sunny 32 0 10 -12 40 40 WNW 17 28 30.22 1023 10 16 0.00 0.00
10:35 am 10:35 Sunny 32 0 12 -11 43 43 NW 14 22 30.22 1023 10 16 0.00 0.00
10:55 am 10:55 Sunny 32 0 12 -11 43 43 WNW 17 28 30.23 1024 10 16 0.00 0.00
11:15 am 11:15 Partly Cloudy 32 0 12 -11 43 43 NW 18 30 30.23 1024 10 16 0.00 0.00
11:35 am 11:35 Partly Cloudy 34 1 12 -11 40 40 NW 18 30 30.23 1024 10 16 0.00 0.00
11:55 am 11:55 Partly Cloudy 34 1 14 -10 44 44 NW 16 26 30.23 1024 10 16 0.00 0.00
12:15 pm 12:15 Partly Cloudy 34 1 14 -10 44 44 NW 14 22 30.23 1024 10 16 0.00 0.00
12:35 pm 12:35 Partly Cloudy 36 2 14 -10 40 40 WNW 14 22 30.22 1023 10 16 0.00 0.00
12:55 pm 12:55 Partly Cloudy 36 2 14 -10 40 40 WNW 12 19 30.22 1023 10 16 0.00 0.00
1:15 pm 13:15 Partly Cloudy 36 2 14 -10 40 40 NW 18 30 30.22 1023 10 16 0.00 0.00
1:35 pm 13:35 Sunny 37 3 16 -9 41 41 NW 17 28 30.21 1023 10 16 0.00 0.00
1:55 pm 13:55 Sunny 37 3 16 -9 41 41 WNW 14 22 30.20 1023 10 16 0.00 0.00
2:15 pm 14:15 Sunny 37 3 14 -10 38 38 NW 18 30 30.19 1022 10 16 0.00 0.00
2:35 pm 14:35 Partly Cloudy 39 4 16 -9 38 38 NNW 17 28 30.19 1022 10 16 0.00 0.00
2:55 pm 14:55 Partly Cloudy 39 4 18 -8 41 41 WNW 21 33 30.18 1022 10 16 0.00 0.00
3:15 pm 15:15 Sunny 41 5 16 -9 35 35 NW 15 24 30.17 1022 10 16 0.00 0.00
3:35 pm 15:35 Sunny 41 5 16 -9 35 35 NNW 20 31 30.17 1022 10 16 0.00 0.00
3:55 pm 15:55 Sunny 41 5 18 -8 38 38 NW 16 26 30.17 1022 10 16 0.00 0.00
4:15 pm 16:15 Partly Cloudy 41 5 16 -9 35 35 NW 18 30 30.17 1022 10 16 0.00 0.00
4:35 pm 16:35 Sunny 41 5 16 -9 35 35 NW 18 30 30.19 1022 10 16 0.00 0.00
4:55 pm 16:55 Sunny 41 5 16 -9 35 35 NW 16 26 30.19 1022 10 16 0.00 0.00
5:15 pm 17:15 Sunny 41 5 16 -9 35 35 NW 14 22 30.19 1022 10 16 0.00 0.00
5:35 pm 17:35 Sunny 41 5 16 -9 35 35 NW 13 20 30.19 1022 10 16 0.00 0.00
5:55 pm 17:55 Sunny 41 5 14 -10 33 33 NNW 14 22 30.19 1022 10 16 0.00 0.00
6:15 pm 18:15 Sunny 41 5 16 -9 35 35 WNW 12 19 30.20 1023 10 16 0.00 0.00
6:35 pm 18:35 Sunny 39 4 14 -10 35 35 WNW 18 30 30.22 1023 10 16 0.00 0.00
6:55 pm 18:55 Sunny 37 3 14 -10 38 38 WNW 14 22 30.22 1023 10 16 0.00 0.00
7:15 pm 19:15 Sunny 36 2 14 -10 40 40 WNW 17 28 30.23 1024 10 16 0.00 0.00
7:35 pm 19:35 Clear 36 2 14 -10 40 40 WNW 10 17 30.24 1024 10 16 0.00 0.00
7:55 pm 19:55 Clear 36 2 14 -10 40 40 WNW 8 13 30.25 1024 10 16 0.00 0.00
8:15 pm 20:15 Clear 34 1 14 -10 44 44 WNW 6 9 30.25 1024 10 16 0.00 0.00
8:35 pm 20:35 Clear 32 0 14 -10 47 47 NW 8 13 30.26 1025 10 16 0.00 0.00
8:55 pm 20:55 Clear 34 1 14 -10 44 44 WNW 7 11 30.27 1025 10 16 0.00 0.00
9:15 pm 21:15 Clear 32 0 14 -10 47 47 NW 7 11 30.28 1025 10 16 0.00 0.00
9:35 pm 21:35 Clear 32 0 14 -10 47 47 WNW 6 9 30.29 1026 10 16 0.00 0.00
9:55 pm 21:55 Clear 32 0 14 -10 47 47 WNW 7 11 30.30 1026 10 16 0.00 0.00
10:15 pm 22:15 Clear 32 0 14 -10 47 47 WNW 7 11 30.30 1026 10 16 0.00 0.00
10:35 pm 22:35 Clear 32 0 16 -9 51 51 WNW 3 6 30.31 1026 10 16 0.00 0.00
10:55 pm 22:55 Clear 32 0 14 -10 47 47 W 3 6 30.31 1026 10 16 0.00 0.00
11:15 pm 23:15 Clear 32 0 16 -9 51 51 Calm 30.33 1027 10 16 0.00 0.00
11:35 pm 23:35 Clear 30 -1 18 -8 59 59 NW 8 13 30.31 1027 10 16 0.00 0.00
11:55 pm 23:55 Clear 30 -1 16 -9 54 54 NW 6 9 30.31 1027 10 16 0.00 0.00

Powered by AerisWeather